CP10 (EXOCUBE) (40380 NORAD) Tracking and Keplerian Element Data

This shows tracking and keplerian element data for the satellite.

Feedback or suggestion? Click here.




ElementValue
Catalog40380
NameCP10 (EXOCUBE)
Epoch Orbit51799
Epoch Day160.01364981
Epoch Year2024
RAAN184.1917
Inclination99.0859
Eccentricity0.0031474
Argument of Perigee145.2073
Mean Anonmoly215.126
Mean Motion15.89389699
Decay Rate0.00465435
L11 40380U 15003E 24160.01364981 .00465435 84153-4 15478-2 0 9998
L22 40380 99.0859 184.1917 0031474 145.2073 215.1260 15.89389699517994



Live tracking and technical data element details for CP10 (EXOCUBE) (NORAD 40380). CP10 (EXOCUBE) can be tracked NOW for your location showing map with azimuth and elevation plus other details from your city location.







IsCatalogInMostPopularTable: catalog: 40380, numindb: 514
Update: records affected: 1



GetName: 40380 CP10 (EXOCUBE)

Hit Count: updated at: Thu, 22 May 2025 04:38:03 GMT